Location: Paris
(48.6709°N, 2.3750°E)
Time: 09:12:44
(UTC+02:00)

CUTE 1.7 + AOD 2 - Visible Passes

Search period start: 28 June 2022 00:00
Search period end: 08 July 2022 00:00
Orbit: 590 x 607 km, 97.7° (Epoch: 27 June)

Date Brightness Start Highest point End Pass type
(mag) Time Alt. Az. Time Alt. Az. Time Alt. Az.
03 Jul ? 04:31:07 10° ENE 04:33:04 13° E 04:35:00 10° ESE visible
04 Jul ? 04:41:17 10° NE 04:43:59 16° E 04:46:40 10° SE visible
05 Jul ? 04:51:41 10° NE 04:54:54 21° E 04:58:04 10° SE visible
06 Jul ? 05:02:13 10° NE 05:05:47 26° E 05:09:19 10° SSE visible
